GW1010 Weather Reports


Display with metric or nautical units.
time (UTC)temp
F
wind
direction
speed
MPH
gust
MPH
rain 1hr
in
rain 24hr
in
rain mn
in
humidity
%
barometer
mb
20260505083042 49 0 0.0 0.0 0.00 0.00 0.00 88 1015.8
20260505082527 49 0 0.0 0.0 0.00 0.00 0.00 88 1015.9
20260505082028 49 0 0.0 0.0 0.00 0.00 0.00 88 1015.9
20260505081536 49 0 0.0 0.0 0.00 0.00 0.00 88 1015.9
20260505081027 49 0 0.0 0.0 0.00 0.00 0.00 87 1015.9
20260505080526 49 0 0.0 0.0 0.00 0.00 0.00 87 1015.9
20260505080053 49 0 0.0 0.0 0.00 0.00 0.00 86 1016.0
20260505075526 50 0 0.0 0.0 0.00 0.00 0.00 86 1016.0
20260505075027 50 0 0.0 0.0 0.00 0.00 0.00 85 1016.0
20260505074541 50 0 0.0 0.0 0.00 0.00 0.00 85 1015.9
20260505074024 51 0 0.0 0.0 0.00 0.00 0.00 84 1015.9
20260505073528 51 0 0.0 1.0 0.00 0.00 0.00 84 1015.9
20260505073041 51 0 0.0 1.0 0.00 0.00 0.00 84 1016.0
20260505072527 51 0 0.0 1.0 0.00 0.00 0.00 84 1015.9
20260505072027 51 0 0.0 1.0 0.00 0.00 0.00 84 1015.9
20260505071549 51 0 0.0 1.0 0.00 0.00 0.00 84 1015.8
20260505071027 51 0 0.0 1.0 0.00 0.00 0.00 84 1015.8
20260505070528 51 214 0.0 0.0 0.00 0.00 0.00 83 1015.8
20260505070037 51 0 0.0 0.0 0.00 0.00 0.00 83 1015.8
20260505065527 51 0 0.0 0.0 0.00 0.00 0.00 83 1015.8
20260505065026 51 0 0.0 0.0 0.00 0.00 0.00 83 1015.8
20260505064545 51 0 0.0 0.0 0.00 0.00 0.00 82 1015.8
20260505064026 51 0 0.0 0.0 0.00 0.00 0.00 82 1015.8
20260505063529 52 0 0.0 0.0 0.00 0.00 0.00 82 1015.7
20260505063047 52 0 0.0 0.0 0.00 0.00 0.00 82 1015.8
20260505062528 52 0 0.0 0.0 0.00 0.00 0.00 82 1015.7
20260505062027 52 0 0.0 1.0 0.00 0.00 0.00 82 1015.6
20260505061541 52 0 0.0 3.0 0.00 0.00 0.00 82 1015.6
20260505061027 52 0 0.0 3.0 0.00 0.00 0.00 81 1015.7
20260505060527 52 191 0.0 2.0 0.00 0.00 0.00 81 1015.6
20260505060049 52 0 0.0 3.0 0.00 0.00 0.00 81 1015.6
20260505055527 52 117 0.0 3.0 0.00 0.00 0.00 81 1015.6
20260505055027 52 181 0.0 2.0 0.00 0.00 0.00 80 1015.7
20260505054548 53 194 0.0 1.0 0.00 0.00 0.00 79 1015.7
20260505054027 53 0 0.0 2.0 0.00 0.00 0.00 79 1015.8
20260505053526 53 0 0.0 2.0 0.00 0.00 0.00 78 1015.8
20260505053048 53 0 0.0 4.0 0.00 0.00 0.00 78 1015.8
20260505052530 53 113 0.0 4.0 0.00 0.00 0.00 77 1015.8
20260505052030 54 141 0.0 5.0 0.00 0.00 0.00 77 1015.8
20260505051542 54 233 1.0 5.0 0.00 0.00 0.00 77 1015.7
20260505051027 54 165 1.0 2.0 0.00 0.00 0.00 77 1015.8
20260505050530 54 113 0.0 2.0 0.00 0.00 0.00 76 1015.7
20260505041542 55 119 1.0 4.0 0.00 0.00 0.00 74 1015.5
20260505041028 55 0 0.0 3.0 0.00 0.00 0.00 73 1015.4
20260505040527 55 0 0.0 3.0 0.00 0.00 0.00 72 1015.3
20260505040044 55 148 0.0 3.0 0.00 0.00 0.00 71 1015.3
20260505035527 55 151 1.0 3.0 0.00 0.00 0.00 71 1015.3
20260505035028 55 0 0.0 4.0 0.00 0.00 0.00 70 1015.2
20260505034546 55 335 1.0 4.0 0.00 0.00 0.00 69 1015.2
20260505034027 55 136 0.0 3.0 0.00 0.00 0.00 68 1015.2
20260505033528 55 0 0.0 1.0 0.00 0.00 0.00 68 1015.2
20260505033043 55 0 0.0 1.0 0.00 0.00 0.00 68 1015.2
20260505032532 55 0 0.0 3.0 0.00 0.00 0.00 67 1015.2
20260505032028 55 0 0.0 3.0 0.00 0.00 0.00 67 1015.2
20260505031547 56 200 0.0 3.0 0.00 0.00 0.00 66 1015.1
20260505031032 56 0 0.0 2.0 0.00 0.00 0.00 66 1015.0
20260505030527 56 0 0.0 3.0 0.00 0.00 0.00 66 1015.0
20260505030044 56 0 1.0 3.0 0.00 0.00 0.00 65 1015.0
20260505025528 56 226 0.0 3.0 0.00 0.00 0.00 65 1015.0
20260505025029 57 0 1.0 3.0 0.00 0.00 0.00 65 1015.0
20260505024535 57 0 0.0 4.0 0.00 0.00 0.00 64 1015.0
20260505024027 57 0 0.0 4.0 0.00 0.00 0.00 63 1015.0
20260505023528 57 0 0.0 5.0 0.00 0.00 0.00 63 1014.9
20260505023037 57 0 0.0 5.0 0.00 0.00 0.00 63 1014.8
20260505022528 58 187 0.0 3.0 0.00 0.00 0.00 62 1014.9
20260505022027 58 0 0.0 3.0 0.00 0.00 0.00 61 1014.8
20260505021544 59 0 0.0 2.0 0.00 0.00 0.00 62 1014.7
20260505021026 59 0 0.0 2.0 0.00 0.00 0.00 62 1014.7
20260505020527 59 0 0.0 3.0 0.00 0.00 0.00 61 1014.8
20260505020041 59 0 0.0 3.0 0.00 0.00 0.00 61 1014.8
20260505015529 60 306 0.0 3.0 0.00 0.00 0.00 59 1014.8
20260505015024 60 27 0.0 3.0 0.00 0.00 0.00 58 1014.8
20260505014550 61 0 0.0 5.0 0.00 0.00 0.00 59 1014.8
20260505014027 61 0 1.0 5.0 0.00 0.00 0.00 58 1014.8
20260505013527 61 0 1.0 7.0 0.00 0.00 0.00 57 1014.8
20260505013040 62 0 1.0 7.0 0.00 0.00 0.00 57 1014.9
20260505012528 62 215 1.0 7.0 0.00 0.00 0.00 56 1014.8
20260505012028 63 0 3.0 7.0 0.00 0.00 0.00 53 1014.8
20260505011547 63 236 1.0 5.0 0.00 0.00 0.00 53 1014.8
20260505011027 64 264 2.0 6.0 0.00 0.00 0.00 54 1014.8
20260505010527 65 323 2.0 7.0 0.00 0.00 0.00 53 1014.7
20260505010103 65 257 2.0 7.0 0.00 0.00 0.00 53 1014.7
20260505005527 65 239 2.0 7.0 0.00 0.00 0.00 54 1014.7
20260505005027 65 203 1.0 7.0 0.00 0.00 0.00 54 1014.7
20260505004544 65 245 1.0 7.0 0.00 0.00 0.00 53 1014.6
20260505004027 65 252 1.0 5.0 0.00 0.00 0.00 53 1014.7
20260505003524 66 264 2.0 5.0 0.00 0.00 0.00 53 1014.7
20260505003043 66 0 1.0 9.0 0.00 0.00 0.00 53 1014.6
20260505002527 66 0 2.0 9.0 0.00 0.00 0.00 52 1014.5
20260505002027 67 240 1.0 5.0 0.00 0.00 0.00 52 1014.5
20260505001539 67 269 1.0 5.0 0.00 0.00 0.00 51 1014.5
20260505001028 67 243 2.0 5.0 0.00 0.00 0.00 51 1014.5
20260505000527 68 219 1.0 5.0 0.00 0.00 0.00 50 1014.5
20260505000043 68 173 2.0 6.0 0.00 0.00 0.00 51 1014.6
20260504235527 68 260 1.0 6.0 0.00 0.00 0.00 48 1014.6
20260504235028 69 322 1.0 4.0 0.00 0.00 0.00 48 1014.6
20260504234543 69 231 0.0 5.0 0.00 0.00 0.00 48 1014.6
20260504234026 69 150 1.0 5.0 0.00 0.00 0.00 49 1014.5
20260504233527 68 212 2.0 5.0 0.00 0.00 0.00 49 1014.5
20260504233041 69 117 1.0 5.0 0.00 0.00 0.00 47 1014.5
20260504232527 68 318 1.0 5.0 0.00 0.00 0.00 49 1014.6
20260504232028 68 112 2.0 7.0 0.00 0.00 0.00 48 1014.7
20260504231545 68 325 2.0 8.0 0.00 0.00 0.00 49 1014.6
20260504231027 68 260 2.0 8.0 0.00 0.00 0.00 48 1014.7
20260504230527 68 112 2.0 8.0 0.00 0.00 0.00 48 1014.8
20260504230045 69 257 2.0 8.0 0.00 0.00 0.00 49 1014.9
20260504225526 68 126 1.0 4.0 0.00 0.00 0.00 49 1015.0
20260504225026 67 113 1.0 7.0 0.00 0.00 0.00 51 1015.1
20260504224536 67 49 3.0 9.0 0.00 0.00 0.00 50 1015.2
20260504224027 67 328 3.0 9.0 0.00 0.00 0.00 51 1015.2
20260504223528 67 231 2.0 6.0 0.00 0.00 0.00 51 1015.3
20260504223058 67 274 1.0 6.0 0.00 0.00 0.00 54 1015.3
20260504222527 67 176 2.0 6.0 0.00 0.00 0.00 52 1015.5
20260504222026 67 236 2.0 5.0 0.00 0.00 0.00 52 1015.5
20260504221554 67 143 1.0 6.0 0.00 0.00 0.00 52 1015.5
20260504221027 67 250 1.0 6.0 0.00 0.00 0.00 54 1015.5
20260504220531 67 245 2.0 7.0 0.00 0.00 0.00 53 1015.6
20260504220043 67 280 3.0 7.0 0.00 0.00 0.00 54 1015.7
20260504215527 67 156 1.0 7.0 0.00 0.00 0.00 50 1015.8
20260504215027 67 195 2.0 7.0 0.00 0.00 0.00 50 1015.8
20260504214535 67 74 2.0 7.0 0.00 0.00 0.00 49 1015.8
20260504214027 67 246 1.0 5.0 0.00 0.00 0.00 47 1015.8
20260504213527 67 232 2.0 8.0 0.00 0.00 0.00 47 1015.8
20260504213047 67 286 3.0 8.0 0.00 0.00 0.00 47 1015.9
20260504212527 67 283 1.0 6.0 0.00 0.00 0.00 49 1015.9
20260504212028 66 257 2.0 11.0 0.00 0.00 0.00 50 1015.8
20260504211540 66 272 3.0 11.0 0.00 0.00 0.00 52 1015.8
20260504211028 66 136 2.0 7.0 0.00 0.00 0.00 48 1015.9
20260504210524 67 228 2.0 7.0 0.00 0.00 0.00 49 1015.8
20260504210047 67 122 2.0 8.0 0.00 0.00 0.00 48 1015.8
20260504205528 67 286 3.0 8.0 0.00 0.00 0.00 48 1015.7
20260504205027 67 221 2.0 5.0 0.00 0.00 0.00 47 1015.8
20260504204538 66 0 1.0 10.0 0.00 0.00 0.00 51 1015.8
20260504204027 66 133 3.0 10.0 0.00 0.00 0.00 49 1015.9
20260504203529 66 64 3.0 7.0 0.00 0.00 0.00 50 1015.9
20260504203048 66 294 2.0 8.0 0.00 0.00 0.00 52 1015.8
20260504202527 66 281 2.0 9.0 0.00 0.00 0.00 51 1015.7
20260504202026 66 71 3.0 9.0 0.00 0.00 0.00 49 1015.6
20260504201535 66 267 2.0 10.0 0.00 0.00 0.00 51 1015.7
20260504201028 66 198 3.0 10.0 0.00 0.00 0.00 49 1015.6
20260504200525 67 105 2.0 9.0 0.00 0.00 0.00 49 1015.6
20260504200044 67 217 3.0 9.0 0.00 0.00 0.00 50 1015.5
20260504195525 68 128 1.0 6.0 0.00 0.00 0.00 50 1015.5
20260504195027 68 183 2.0 5.0 0.00 0.00 0.00 49 1015.5
20260504194546 68 221 0.0 6.0 0.00 0.00 0.00 49 1015.5
20260504194028 68 94 2.0 6.0 0.00 0.00 0.00 49 1015.5
20260504193531 69 191 1.0 5.0 0.00 0.00 0.00 51 1015.5
20260504193043 68 243 1.0 3.0 0.00 0.00 0.00 52 1015.5
20260504192528 66 184 0.0 3.0 0.00 0.00 0.00 54 1015.4
20260504192030 66 333 0.0 3.0 0.00 0.00 0.00 53 1015.5
20260504191542 66 0 1.0 3.0 0.00 0.00 0.00 55 1015.6
20260504191028 65 129 0.0 6.0 0.00 0.00 0.00 56 1015.6
20260504190527 65 231 1.0 6.0 0.00 0.00 0.00 55 1015.6
20260504190038 66 245 2.0 6.0 0.00 0.00 0.00 55 1015.6
20260504185527 66 268 1.0 6.0 0.00 0.00 0.00 55 1015.6
20260504185030 66 240 0.0 7.0 0.00 0.00 0.00 55 1015.6
20260504184544 66 195 1.0 7.0 0.00 0.00 0.00 50 1015.7
20260504184030 66 169 1.0 4.0 0.00 0.00 0.00 50 1015.7
20260504183527 66 0 0.0 3.0 0.00 0.00 0.00 51 1015.7
20260504183044 65 0 1.0 3.0 0.00 0.00 0.00 52 1015.8
20260504182527 65 147 0.0 3.0 0.00 0.00 0.00 52 1015.7
20260504182028 65 160 0.0 4.0 0.00 0.00 0.00 53 1015.8
20260504181548 65 84 1.0 4.0 0.00 0.00 0.00 52 1015.8
20260504181033 66 0 1.0 5.0 0.00 0.00 0.00 51 1015.9
20260504180528 67 319 0.0 5.0 0.00 0.00 0.00 51 1016.0
20260504180048 66 131 0.0 3.0 0.00 0.00 0.00 54 1015.8
20260504175530 66 0 1.0 5.0 0.00 0.00 0.00 54 1015.9
20260504175028 65 0 0.0 5.0 0.00 0.00 0.00 55 1015.9
20260504174545 65 273 2.0 5.0 0.00 0.00 0.00 54 1016.0
20260504174029 65 122 1.0 5.0 0.00 0.00 0.00 56 1016.0
20260504173527 64 0 1.0 5.0 0.00 0.00 0.00 58 1015.9
20260504173043 63 0 1.0 5.0 0.00 0.00 0.00 58 1016.0
20260504172527 63 0 1.0 3.0 0.00 0.00 0.00 59 1016.0
20260504172027 63 0 0.0 3.0 0.00 0.00 0.00 64 1016.0
20260504171544 62 0 1.0 3.0 0.00 0.00 0.00 62 1016.1
20260504171027 62 256 1.0 4.0 0.00 0.00 0.00 63 1016.2
20260504170527 62 163 1.0 4.0 0.00 0.00 0.00 64 1016.1
20260504151028 47 334 1.0 2.0 0.00 0.00 0.00 93 1016.4
20260504150527 46 0 0.0 2.0 0.00 0.00 0.00 94 1016.4
20260504150111 46 0 0.0 0.0 0.00 0.00 0.00 94 1016.4
20260504141029 42 0 0.0 0.0 0.00 0.00 0.00 96 1016.6
20260504140525 41 0 0.0 0.0 0.00 0.00 0.00 96 1016.6
20260504130528 40 0 0.0 0.0 0.00 0.00 0.00 95 1015.9
20260504110527 42 0 0.0 0.0 0.00 0.00 0.00 94 1016.2
20260504100527 45 0 0.0 0.0 0.00 0.00 0.00 94 1016.0